DW5826 Weather Reports


time (UTC)temp
C
wind
direction
speed
KPH
gust
KPH
rain 1hr
cm
rain 24hr
cm
rain mn
cm
humidity
%
barometer
mb
20190424145106 18 186 1.6 12.9 0.00 0.10 0.00 60 987.0
20190424144606 18 162 3.2 12.9 0.00 0.10 0.00 60 987.0
20190424144106 18 191 1.6 8.0 0.00 0.10 0.00 61 987.0
20190424143606 18 176 1.6 8.0 0.00 0.10 0.00 62 987.0
20190424143107 18 323 0.0 0.0 0.00 0.10 0.00 63 987.0
20190424142606 18 300 0.0 9.7 0.00 0.10 0.00 62 987.0
20190424142106 18 242 1.6 9.7 0.00 0.10 0.00 62 987.0
20190424141607 17 217 1.6 9.7 0.00 0.10 0.00 62 987.0
20190424141106 17 198 1.6 12.9 0.00 0.10 0.00 62 986.0
20190424140605 17 192 3.2 12.9 0.00 0.10 0.00 62 986.0
20190424140106 17 169 8.0 14.5 0.00 0.10 0.00 62 986.0
20190424135607 17 205 4.8 14.5 0.00 0.10 0.00 63 986.0
20190424135107 17 144 6.4 14.5 0.00 0.10 0.00 63 986.0
20190424134607 17 300 0.0 22.5 0.00 0.10 0.00 63 986.0
20190424134107 16 171 6.4 22.5 0.00 0.10 0.00 64 987.0
20190424133606 16 175 3.2 22.5 0.00 0.10 0.00 64 987.0
20190424133107 16 234 14.5 22.5 0.00 0.10 0.00 64 987.0
20190424132607 16 206 8.0 20.9 0.00 0.10 0.00 64 987.0
20190424132107 16 203 11.3 20.9 0.00 0.10 0.00 63 987.0
20190424131606 16 211 9.7 20.9 0.00 0.10 0.00 63 987.0
20190424131106 16 196 12.9 32.2 0.00 0.10 0.00 63 987.0
20190424130605 16 217 9.7 37.0 0.00 0.10 0.00 62 987.0
20190424130107 16 176 20.9 37.0 0.00 0.10 0.00 62 987.0
20190424125607 16 191 16.1 37.0 0.00 0.10 0.00 61 987.0
20190424125107 16 167 12.9 37.0 0.00 0.10 0.00 61 987.0
20190424124607 16 188 16.1 41.8 0.00 0.10 0.00 61 987.0
20190424124107 16 205 22.5 41.8 0.00 0.10 0.00 61 987.0
20190424123606 16 142 19.3 35.4 0.00 0.10 0.00 61 987.0
20190424123107 16 170 16.1 27.4 0.00 0.10 0.00 61 987.0
20190424122606 16 212 17.7 37.0 0.00 0.10 0.00 61 988.0
20190424122107 16 205 20.9 37.0 0.00 0.10 0.00 61 988.0
20190424121607 16 189 20.9 38.6 0.00 0.10 0.00 61 988.0
20190424121106 15 169 20.9 38.6 0.00 0.10 0.00 61 989.0
20190424120606 15 210 24.1 38.6 0.00 0.10 0.00 61 989.0
20190424120107 15 194 19.3 38.6 0.00 0.10 0.00 62 989.0
20190424115607 15 192 19.3 45.1 0.00 0.10 0.00 61 989.0
20190424115106 15 223 22.5 45.1 0.00 0.10 0.00 61 989.0
20190424114606 15 202 20.9 40.2 0.00 0.10 0.00 61 989.0
20190424114106 15 191 19.3 32.2 0.00 0.10 0.00 61 988.0
20190424113607 15 200 22.5 49.9 0.00 0.10 0.00 62 988.0
20190424113107 14 203 25.7 49.9 0.00 0.10 0.00 62 988.0
20190424112607 14 165 19.3 38.6 0.00 0.10 0.00 62 989.0
20190424112107 13 198 22.5 37.0 0.00 0.10 0.00 62 989.0
20190424111607 13 185 14.5 29.0 0.00 0.10 0.00 63 989.0
20190424111106 13 194 16.1 27.4 0.00 0.10 0.00 63 989.0
20190424110606 13 323 19.3 37.0 0.00 0.10 0.00 63 989.0
20190424110106 13 179 19.3 37.0 0.00 0.10 0.00 63 989.0
20190424105607 13 211 17.7 40.2 0.00 0.10 0.00 63 989.0
20190424105106 12 200 19.3 40.2 0.00 0.10 0.00 64 989.0
20190424104607 12 207 22.5 45.1 0.00 0.10 0.00 64 989.0
20190424104107 12 200 19.3 48.3 0.00 0.10 0.00 64 989.0
20190424103607 12 171 27.4 53.1 0.00 0.10 0.00 65 989.0
20190424103106 12 191 33.8 57.9 0.00 0.10 0.00 64 989.0
20190424102608 12 188 24.1 57.9 0.00 0.10 0.00 65 989.0
20190424102107 12 190 25.7 45.1 0.00 0.10 0.00 65 989.0
20190424101607 12 214 25.7 41.8 0.00 0.10 0.00 65 989.0
20190424101106 12 207 27.4 40.2 0.00 0.10 0.00 66 989.0
20190424100606 11 191 25.7 40.2 0.00 0.10 0.00 67 989.0
20190424100106 11 196 19.3 48.3 0.00 0.10 0.00 68 989.0
20190424095606 11 176 25.7 48.3 0.00 0.10 0.00 68 989.0
20190424095106 11 168 25.7 41.8 0.00 0.10 0.00 68 989.0
20190424094607 11 197 22.5 45.1 0.00 0.10 0.00 68 989.0
20190424094107 11 200 32.2 45.1 0.00 0.10 0.00 68 990.0
20190424093606 11 177 16.1 40.2 0.00 0.10 0.00 69 990.0
20190424093106 11 168 20.9 45.1 0.00 0.10 0.00 69 990.0
20190424092606 11 199 22.5 45.1 0.00 0.10 0.00 69 990.0
20190424092106 11 187 12.9 37.0 0.00 0.10 0.00 70 990.0
20190424091607 11 183 17.7 41.8 0.00 0.10 0.00 69 990.0
20190424091106 11 199 19.3 41.8 0.00 0.10 0.00 70 991.0
20190424090605 11 202 16.1 35.4 0.00 0.10 0.00 71 991.0
20190424090107 10 213 20.9 53.1 0.00 0.10 0.00 70 991.0
20190424085606 10 213 22.5 53.1 0.00 0.10 0.00 70 990.0
20190424085107 11 202 32.2 53.1 0.00 0.10 0.00 69 990.0
20190424084606 11 203 29.0 45.1 0.00 0.10 0.00 69 990.0
20190424084106 11 213 32.2 48.3 0.00 0.10 0.00 68 990.0
20190424083606 11 199 29.0 48.3 0.00 0.10 0.00 68 990.0
20190424083107 11 224 19.3 37.0 0.00 0.10 0.00 67 990.0
20190424082606 11 191 22.5 32.2 0.00 0.10 0.00 66 990.0
20190424082107 11 174 12.9 37.0 0.00 0.10 0.00 66 990.0
20190424081606 11 179 14.5 37.0 0.00 0.10 0.00 65 990.0
20190424081106 11 222 14.5 37.0 0.00 0.10 0.00 65 990.0
20190424080605 11 191 14.5 27.4 0.00 0.10 0.00 65 990.0
20190424080106 11 195 16.1 27.4 0.00 0.10 0.00 65 990.0
20190424075607 11 149 9.7 41.8 0.00 0.10 0.00 64 990.0
20190424075107 11 202 11.3 41.8 0.00 0.10 0.00 64 990.0
20190424074606 11 193 17.7 41.8 0.00 0.10 0.00 65 990.0
20190424074107 11 183 17.7 33.8 0.00 0.10 0.00 66 990.0
20190424073606 11 181 19.3 33.8 0.00 0.10 0.00 65 990.0
20190424073107 11 210 16.1 33.8 0.00 0.10 0.00 65 990.0
20190424072607 11 131 16.1 32.2 0.00 0.10 0.00 65 990.0
20190424072107 11 206 14.5 38.6 0.00 0.10 0.00 65 990.0
20190424071606 11 184 14.5 38.6 0.00 0.10 0.00 65 990.0
20190424071107 11 199 17.7 38.6 0.00 0.10 0.00 65 990.0
20190424070605 11 195 19.3 35.4 0.00 0.10 0.00 66 990.0
20190424070106 11 180 17.7 35.4 0.00 0.10 0.00 67 990.0
20190424065606 11 161 17.7 35.4 0.00 0.10 0.00 67 990.0
20190424065106 11 198 11.3 20.9 0.00 0.10 0.00 68 990.0
20190424064607 11 202 6.4 14.5 0.00 0.10 0.00 69 990.0
20190424064106 11 200 9.7 20.9 0.00 0.10 0.00 68 991.0
20190424063606 11 225 12.9 20.9 0.00 0.10 0.00 68 991.0
20190424063106 11 198 8.0 20.9 0.00 0.10 0.00 70 991.0
20190424062606 11 177 6.4 12.9 0.00 0.10 0.00 69 991.0
20190424062106 11 245 1.6 19.3 0.00 0.10 0.00 68 991.0
20190424061606 11 174 6.4 20.9 0.00 0.10 0.00 67 991.0
20190424061107 11 202 14.5 20.9 0.00 0.10 0.00 66 991.0
20190424060605 11 183 14.5 20.9 0.00 0.10 0.00 67 991.0
20190424060106 11 204 11.3 20.9 0.00 0.10 0.00 68 991.0
20190424055606 11 173 11.3 24.1 0.00 0.10 0.00 69 991.0
20190424055107 11 189 12.9 24.1 0.00 0.10 0.00 70 991.0
20190424054607 10 181 9.7 24.1 0.00 0.10 0.00 71 991.0
20190424054106 10 189 9.7 24.1 0.00 0.10 0.00 71 991.0
20190424053608 10 171 14.5 24.1 0.00 0.10 0.00 72 991.0
20190424053107 10 161 11.3 24.1 0.00 0.10 0.00 73 991.0
20190424052606 10 195 14.5 24.1 0.00 0.10 0.00 75 991.0
20190424052107 10 192 8.0 16.1 0.00 0.10 0.00 78 991.0
20190424051606 9 201 6.4 14.5 0.00 0.10 0.00 80 991.0
20190424051106 9 238 1.6 11.3 0.00 0.10 0.00 81 991.0
20190424050605 9 218 3.2 11.3 0.00 0.10 0.00 81 991.0
20190424050106 9 202 3.2 9.7 0.00 0.10 0.00 83 991.0
20190424045606 9 202 0.0 11.3 0.00 0.10 0.00 83 991.0
20190424045106 9 194 6.4 11.3 0.00 0.10 0.00 84 991.0
20190424044607 9 137 4.8 14.5 0.00 0.10 0.00 84 991.0
20190424044107 9 233 3.2 14.5 0.00 0.10 0.00 84 991.0
20190424043607 9 216 8.0 12.9 0.00 0.10 0.00 84 991.0
20190424043106 8 202 4.8 14.5 0.00 0.10 0.00 85 991.0
20190424042606 9 199 8.0 14.5 0.00 0.10 0.00 86 991.0
20190424042106 9 168 4.8 14.5 0.00 0.10 0.00 87 991.0
20190424041607 8 214 6.4 14.5 0.00 0.10 0.00 89 991.0
20190424041106 8 213 1.6 12.9 0.00 0.10 0.00 92 991.0
20190424040606 8 171 0.0 9.7 0.00 0.10 0.00 93 991.0
20190424040106 8 218 0.0 8.0 0.00 0.10 0.00 95 991.0
20190424035606 8 212 0.0 8.0 0.00 0.10 0.00 96 992.0
20190424035107 8 228 0.0 1.6 0.00 0.10 0.00 97 992.0
20190424034606 8 210 0.0 3.2 0.00 0.10 0.00 97 992.0
20190424034106 7 235 0.0 3.2 0.00 0.10 0.00 97 992.0
20190424033606 7 227 0.0 1.6 0.00 0.10 0.00 97 992.0
20190424033106 7 244 0.0 0.0 0.00 0.10 0.00 97 992.0
20190424032607 7 358 0.0 0.0 0.00 0.10 0.00 97 992.0
20190424032106 7 22 0.0 0.0 0.00 0.10 0.00 97 992.0
20190424031607 8 324 0.0 4.8 0.00 0.10 0.00 97 992.0
20190424031106 8 191 1.6 4.8 0.00 0.10 0.00 97 993.0
20190424030605 7 163 0.0 3.2 0.00 0.10 0.00 97 993.0
20190424030106 7 158 0.0 0.0 0.00 0.10 0.00 97 993.0
20190424025606 7 261 0.0 0.0 0.00 0.10 0.00 97 992.0
20190424025106 7 179 0.0 0.0 0.00 0.10 0.00 97 992.0
20190424024606 7 316 0.0 0.0 0.00 0.10 0.00 97 992.0
20190424024106 7 13 0.0 0.0 0.00 0.10 0.00 97 992.0
20190424023606 7 97 0.0 0.0 0.00 0.10 0.00 97 992.0
20190424023106 7 14 0.0 0.0 0.00 0.10 0.00 97 992.0
20190424022606 7 62 0.0 0.0 0.00 0.10 0.00 97 993.0
20190424022106 7 155 0.0 0.0 0.00 0.10 0.00 97 993.0
20190424021606 7 343 0.0 0.0 0.00 0.10 0.00 97 993.0
20190424021106 7 342 0.0 3.2 0.00 0.10 0.00 97 993.0
20190424020606 7 310 0.0 3.2 0.00 0.10 0.00 97 993.0
20190424020106 7 163 0.0 4.8 0.00 0.10 0.00 97 993.0
20190424015607 7 193 0.0 4.8 0.00 0.10 0.00 97 993.0
20190424015106 7 151 1.6 8.0 0.00 0.10 0.00 97 993.0
20190424014606 7 191 1.6 8.0 0.00 0.10 0.00 97 993.0
20190424014106 7 180 0.0 8.0 0.00 0.10 0.00 97 993.0
20190424013606 8 191 1.6 8.0 0.00 0.10 0.00 97 993.0
20190424013106 8 196 0.0 3.2 0.00 0.10 0.00 97 993.0
20190424012606 8 254 0.0 3.2 0.00 0.10 0.00 97 992.0
20190424012106 8 141 0.0 4.8 0.00 0.10 0.00 97 992.0
20190424011607 8 202 0.0 4.8 0.00 0.10 0.00 97 992.0
20190424011106 8 170 0.0 8.0 0.00 0.10 0.00 97 993.0
20190424010606 8 164 0.0 8.0 0.00 0.10 0.00 97 993.0
20190424010107 8 179 0.0 0.0 0.00 0.10 0.00 97 993.0
20190424005606 8 225 0.0 0.0 0.00 0.10 0.00 97 993.0
20190424005106 8 248 0.0 0.0 0.00 0.10 0.00 97 993.0
20190424004606 8 245 0.0 1.6 0.00 0.10 0.00 97 993.0
20190424004106 8 221 0.0 1.6 0.00 0.10 0.00 97 993.0
20190424003605 8 181 0.0 3.2 0.00 0.10 0.00 97 993.0
20190424003106 8 163 0.0 3.2 0.00 0.10 0.00 97 993.0
20190424002606 8 182 0.0 3.2 0.00 0.10 0.00 97 993.0
20190424002109 8 195 0.0 3.2 0.00 0.10 0.00 97 993.0
20190424001606 8 179 0.0 0.0 0.00 0.10 0.00 97 993.0
20190424001106 8 238 0.0 0.0 0.00 0.10 0.00 97 993.0
20190424000605 8 153 0.0 3.2 0.00 0.10 0.00 97 993.0
20190424000106 8 219 0.0 3.2 0.00 0.10 0.00 97 993.0
20190423235606 8 159 0.0 9.7 0.00 0.10 0.00 97 993.0
20190423235106 8 178 1.6 9.7 0.00 0.10 0.00 97 993.0
20190423234606 8 192 3.2 9.7 0.00 0.10 0.00 97 993.0
20190423234106 8 206 0.0 1.6 0.00 0.10 0.00 97 994.0
20190423233606 9 196 0.0 0.0 0.00 0.10 0.00 97 994.0
20190423233106 9 191 0.0 3.2 0.00 0.10 0.00 96 994.0
20190423232606 9 158 0.0 3.2 0.00 0.10 0.00 97 994.0
20190423232106 9 163 0.0 0.0 0.00 0.10 0.00 97 994.0
20190423231606 9 191 0.0 0.0 0.00 0.10 0.00 97 994.0
20190423231106 9 152 0.0 0.0 0.00 0.10 0.00 97 994.0
20190423230605 9 182 0.0 0.0 0.00 0.10 0.00 97 994.0
20190423230106 9 189 0.0 3.2 0.00 0.10 0.00 97 994.0
20190423225607 9 193 0.0 8.0 0.00 0.10 0.00 97 994.0
20190423225108 9 162 1.6 8.0 0.00 0.10 0.00 97 994.0
20190423224607 9 163 0.0 0.0 0.00 0.10 0.00 97 994.0
20190423224106 9 162 0.0 1.6 0.00 0.10 0.00 97 993.0
20190423223606 9 166 0.0 1.6 0.00 0.10 0.00 97 993.0
20190423223106 9 200 0.0 1.6 0.00 0.10 0.00 97 993.0
20190423222606 9 179 0.0 1.6 0.00 0.10 0.00 97 994.0
20190423222106 9 167 0.0 1.6 0.00 0.10 0.00 97 994.0
20190423221606 9 182 0.0 4.8 0.00 0.10 0.00 97 994.0
20190423221107 9 196 0.0 4.8 0.00 0.10 0.00 97 994.0
20190423220605 9 178 0.0 4.8 0.00 0.10 0.00 97 994.0
20190423220106 9 199 0.0 0.0 0.00 0.10 0.00 97 994.0
20190423215606 9 22 0.0 0.0 0.00 0.10 0.10 97 994.0
20190423215106 9 235 0.0 0.0 0.00 0.10 0.10 97 994.0
20190423214606 9 253 0.0 0.0 0.00 0.10 0.10 97 994.0
20190423214106 9 282 0.0 0.0 0.00 0.10 0.10 97 993.0
20190423213606 9 175 0.0 0.0 0.00 0.10 0.10 97 993.0
20190423213106 9 182 0.0 0.0 0.00 0.10 0.10 97 993.0
20190423212606 9 188 0.0 0.0 0.00 0.10 0.10 97 993.0
20190423212106 9 156 0.0 1.6 0.00 0.10 0.10 97 993.0
20190423211606 9 158 0.0 4.8 0.00 0.10 0.10 97 993.0
20190423211105 9 168 0.0 4.8 0.00 0.10 0.10 96 994.0
20190423210606 9 202 0.0 8.0 0.00 0.10 0.10 96 994.0
20190423210106 9 191 0.0 8.0 0.00 0.10 0.10 95 994.0
20190423205606 9 222 0.0 1.6 0.00 0.10 0.10 95 994.0
20190423205106 9 167 0.0 1.6 0.00 0.10 0.10 94 994.0
20190423204606 9 176 0.0 1.6 0.00 0.10 0.10 94 994.0
20190423204106 9 154 0.0 1.6 0.00 0.10 0.10 94 994.0
20190423203606 9 151 0.0 0.0 0.00 0.10 0.10 94 994.0
20190423203106 9 225 0.0 1.6 0.00 0.10 0.10 94 994.0
20190423202606 9 156 0.0 1.6 0.00 0.10 0.10 94 993.0
20190423202106 9 180 0.0 0.0 0.00 0.10 0.10 94 993.0
20190423201606 9 254 0.0 1.6 0.00 0.10 0.10 94 993.0
20190423201106 9 272 0.0 3.2 0.00 0.10 0.10 94 993.0
20190423200607 9 252 0.0 9.7 0.00 0.10 0.10 94 993.0
20190423200106 9 322 1.6 9.7 0.00 0.10 0.10 94 993.0
20190423195606 9 311 0.0 4.8 0.00 0.10 0.10 94 992.0
20190423195106 9 288 1.6 8.0 0.10 0.10 0.10 94 992.0
20190423194606 9 338 0.0 11.3 0.10 0.10 0.10 95 992.0
20190423194106 9 299 3.2 12.9 0.10 0.10 0.10 95 993.0
20190423193606 9 295 3.2 12.9 0.10 0.10 0.10 95 993.0
20190423193106 9 303 4.8 14.5 0.10 0.10 0.10 96 993.0
20190423192606 9 306 3.2 14.5 0.10 0.10 0.10 96 993.0
20190423192106 9 292 6.4 14.5 0.10 0.10 0.10 96 993.0
20190423191606 8 291 9.7 16.1 0.10 0.10 0.10 96 993.0
20190423191106 8 286 9.7 22.5 0.10 0.10 0.10 96 993.0
20190423190606 9 279 8.0 22.5 0.10 0.10 0.10 96 993.0
20190423190106 9 277 1.6 27.4 0.10 0.10 0.10 96 993.0
20190423185607 9 295 14.5 27.4 0.10 0.10 0.10 94 992.0
20190423185106 9 11 14.5 24.1 0.00 0.00 0.00 94 992.0
20190423184606 9 325 14.5 24.1 0.00 0.00 0.00 93 992.0
20190423184106 10 343 11.3 29.0 0.00 0.00 0.00 91 991.0
20190423183606 10 331 20.9 29.0 0.00 0.00 0.00 90 991.0
20190423183106 11 326 20.9 29.0 0.00 0.00 0.00 88 991.0
20190423182606 12 357 4.8 9.7 0.00 0.00 0.00 88 991.0
20190423182106 12 9 3.2 12.9 0.00 0.00 0.00 88 991.0
20190423181606 12 357 9.7 12.9 0.00 0.00 0.00 87 991.0
20190423181106 12 339 4.8 12.9 0.00 0.00 0.00 87 991.0
20190423180606 12 13 3.2 9.7 0.00 0.00 0.00 87 991.0
20190423180106 12 340 3.2 11.3 0.00 0.00 0.00 87 991.0
20190423175606 12 356 1.6 12.9 0.00 0.00 0.00 86 991.0
20190423175105 12 347 8.0 14.5 0.00 0.00 0.00 85 991.0
20190423174605 12 341 9.7 14.5 0.00 0.00 0.00 85 991.0
20190423174107 12 355 8.0 16.1 0.00 0.00 0.00 84 991.0
20190423173606 12 358 11.3 16.1 0.00 0.00 0.00 84 991.0
20190423173106 13 353 11.3 16.1 0.00 0.00 0.00 85 991.0
20190423172606 13 5 9.7 14.5 0.00 0.00 0.00 85 990.0
20190423172106 13 28 6.4 11.3 0.00 0.00 0.00 86 990.0
20190423171606 13 33 4.8 12.9 0.00 0.00 0.00 86 990.0
20190423171107 13 2 8.0 12.9 0.00 0.00 0.00 86 989.0
20190423170605 13 43 8.0 16.1 0.00 0.00 0.00 86 989.0
20190423170107 13 42 11.3 19.3 0.00 0.00 0.00 87 989.0
20190423165606 12 19 11.3 19.3 0.00 0.00 0.00 86 989.0
20190423165107 13 40 9.7 16.1 0.00 0.00 0.00 87 989.0
20190423164606 13 50 4.8 14.5 0.00 0.00 0.00 87 989.0
20190423164106 13 28 3.2 12.9 0.00 0.00 0.00 87 989.0
20190423163605 13 47 4.8 12.9 0.00 0.00 0.00 86 989.0
20190423163106 13 345 4.8 12.9 0.00 0.00 0.00 86 989.0
20190423162606 13 57 9.7 12.9 0.00 0.00 0.00 86 989.0
20190423162106 13 39 8.0 12.9 0.00 0.00 0.00 86 989.0
20190423161606 13 79 8.0 16.1 0.00 0.00 0.00 86 989.0
20190423161106 13 345 0.0 16.1 0.00 0.00 0.00 86 989.0
20190423160605 13 42 8.0 16.1 0.00 0.00 0.00 86 989.0
20190423160106 13 60 1.6 11.3 0.00 0.00 0.00 86 989.0
20190423155606 13 80 6.4 11.3 0.00 0.00 0.00 85 989.0
20190423155106 13 88 3.2 12.9 0.00 0.00 0.00 87 989.0
20190423154606 13 32 1.6 12.9 0.00 0.00 0.00 87 989.0
20190423154106 13 30 3.2 12.9 0.00 0.00 0.00 87 989.0
20190423153606 13 27 4.8 12.9 0.00 0.00 0.00 87 989.0
20190423153106 13 66 1.6 12.9 0.00 0.00 0.00 87 989.0
20190423152606 13 59 1.6 12.9 0.00 0.00 0.00 88 989.0
20190423152105 12 22 9.7 12.9 0.00 0.00 0.00 87 989.0
20190423151606 13 26 4.8 12.9 0.00 0.00 0.00 87 989.0
20190423151106 13 9 9.7 12.9 0.00 0.00 0.00 87 989.0
20190423150605 13 47 0.0 9.7 0.00 0.00 0.00 87 989.0
20190423150308 13 64 1.6 9.7 0.00 0.00 0.00 87 989.0
20190423145807 13 80 1.6 9.7 0.00 0.00 0.00 87 989.0
20190423145308 13 82 4.8 11.3 0.00 0.00 0.00 87 989.0